KCZAH OTHH-NZAA

Flight info

Callsign KCZAH
Flight time N/A
Altitude 33000
Route BUNDU B415 SIXIV N318 TOLDA P570 EMURU M300 VASTU P895 BIKOK M641 DOGAR DCT DAOVO DCT 10S094E 16S100E 19S104E 21S107E DCT JOLLY DCT 25S114E DCT LST DCT EKUNO DCT 30S128E DCT BEZZA DCT TEGEX DCT DAMOB DCT BHI DCT NEWMO J141 PKS A576 TESAT L521 LUNBI
Aircraft A333/H-SDE3GHIJ2J3J5M1RVWXY/LB2D1

Departure

Time 2026-02-17 03:44
Airport Hamad International Airport (OTHH)

Arrival

Time N/A
Airport Auckland International Airport (NZAA)
Time Latitude Longitude Altitude Speed Heading
2026-02-17 03:39 25.25697 51.62066 27 ft 0 kts 248°
2026-02-17 03:40 25.25699 51.62071 26 ft 3 kts 248°
2026-02-17 03:40 25.25707 51.62093 29 ft 3 kts 226°
2026-02-17 03:41 25.25725 51.62105 29 ft 3 kts 176°
2026-02-17 03:41 25.25739 51.62102 29 ft 4 kts 161°
2026-02-17 03:41 25.25698 51.62119 27 ft 4 kts 154°
2026-02-17 03:41 25.25671 51.62136 24 ft 7 kts 152°
2026-02-17 03:42 25.25610 51.62185 25 ft 17 kts 138°
2026-02-17 03:42 25.25492 51.62282 29 ft 17 kts 141°
2026-02-17 03:42 25.25454 51.62394 28 ft 15 kts 84°
2026-02-17 03:43 25.25569 51.62621 28 ft 19 kts 30°
2026-02-17 03:43 25.25716 51.62604 26 ft 46 kts 339°
2026-02-17 03:43 25.26291 51.62351 27 ft 129 kts 338°
2026-02-17 03:43 25.27346 51.61885 30 ft 195 kts 338°
2026-02-17 03:44 25.28709 51.61299 621 ft 224 kts 339°
2026-02-17 03:44 25.30320 51.60595 1084 ft 277 kts 338°
2026-02-17 03:44 25.32269 51.59722 1535 ft 318 kts 338°
2026-02-17 03:44 25.33635 51.59169 1817 ft 310 kts 345°
2026-02-17 03:45 25.35724 51.59126 2093 ft 297 kts 14°
2026-02-17 03:45 25.37458 51.60217 2385 ft 284 kts 46°
2026-02-17 03:45 25.38358 51.62073 2696 ft 272 kts 79°
2026-02-17 03:45 25.38207 51.64103 2874 ft 265 kts 112°
2026-02-17 03:46 25.37082 51.65667 2939 ft 263 kts 147°
2026-02-17 03:46 25.35369 51.66281 2995 ft 261 kts 175°
2026-02-17 03:46 25.33551 51.66367 3046 ft 261 kts 179°
2026-02-17 03:47 25.30018 51.67143 3112 ft 263 kts 147°
2026-02-17 03:47 25.28771 51.68575 3153 ft 263 kts 123°
2026-02-17 03:47 25.27971 51.70391 3199 ft 263 kts 110°
2026-02-17 03:47 25.27414 51.72318 3251 ft 264 kts 106°
2026-02-17 03:48 25.26932 51.74273 3295 ft 264 kts 105°
2026-02-17 03:48 25.26436 51.76230 3349 ft 264 kts 106°
2026-02-17 03:48 25.25305 51.80096 3432 ft 264 kts 109°
2026-02-17 03:49 25.24682 51.82010 3475 ft 265 kts 110°
2026-02-17 03:49 25.24041 51.83905 3618 ft 259 kts 111°
2026-02-17 03:49 25.23409 51.85741 3679 ft 254 kts 111°
2026-02-17 03:49 25.22779 51.87562 3618 ft 253 kts 111°
2026-02-17 03:50 25.22128 51.89449 3922 ft 272 kts 111°
2026-02-17 03:50 25.21494 51.91293 5473 ft 243 kts 111°
2026-02-17 03:50 25.20958 51.92857 6352 ft 210 kts 111°
2026-02-17 03:51 25.19887 51.95987 7024 ft 224 kts 111°
2026-02-17 03:51 25.19333 51.97606 7396 ft 226 kts 111°
2026-02-17 03:51 25.18774 51.99239 7802 ft 228 kts 111°
2026-02-17 03:51 25.18211 52.00882 8189 ft 229 kts 111°
2026-02-17 03:52 25.17645 52.02535 8601 ft 231 kts 111°
2026-02-17 03:52 25.17076 52.04196 8993 ft 232 kts 111°
2026-02-17 03:52 25.16504 52.05864 9384 ft 233 kts 111°
2026-02-17 03:52 25.15926 52.07547 9761 ft 235 kts 111°
2026-02-17 03:53 25.15354 52.09216 10128 ft 236 kts 111°
2026-02-17 03:53 25.14764 52.10936 10506 ft 237 kts 111°
2026-02-17 03:53 25.14176 52.12646 10877 ft 239 kts 111°
2026-02-17 03:53 25.13593 52.14342 11229 ft 240 kts 111°
2026-02-17 03:54 25.13000 52.16069 11584 ft 241 kts 111°
2026-02-17 03:54 25.12401 52.17810 11935 ft 243 kts 111°
2026-02-17 03:54 25.11801 52.19555 12283 ft 244 kts 111°
2026-02-17 03:55 25.10589 52.23075 12964 ft 247 kts 111°
2026-02-17 03:55 25.09977 52.24851 13284 ft 248 kts 111°
2026-02-17 03:55 25.09362 52.26635 13615 ft 249 kts 111°
2026-02-17 03:55 25.08744 52.28429 13940 ft 250 kts 111°
2026-02-17 03:56 25.08122 52.30229 14268 ft 252 kts 111°
2026-02-17 03:56 25.07499 52.32037 14565 ft 253 kts 111°
2026-02-17 03:56 25.06879 52.33831 14855 ft 254 kts 111°
2026-02-17 03:56 25.06248 52.35659 15171 ft 255 kts 111°
2026-02-17 03:57 25.05613 52.37496 15472 ft 257 kts 111°
2026-02-17 03:57 25.04975 52.39342 15768 ft 258 kts 111°
2026-02-17 03:57 25.04334 52.41194 16059 ft 259 kts 111°
2026-02-17 03:57 25.03691 52.43053 16342 ft 260 kts 111°
2026-02-17 03:58 25.03044 52.44921 16623 ft 261 kts 111°
2026-02-17 03:58 25.02394 52.46796 16901 ft 262 kts 111°
2026-02-17 03:58 25.01742 52.48680 17172 ft 264 kts 111°
2026-02-17 03:59 25.00426 52.52475 17710 ft 266 kts 111°
2026-02-17 03:59 24.99764 52.54382 17972 ft 267 kts 111°
2026-02-17 03:59 24.99100 52.56295 18237 ft 268 kts 111°
2026-02-17 03:59 24.98430 52.58221 18498 ft 269 kts 111°
2026-02-17 04:00 24.97760 52.60149 18749 ft 270 kts 111°
2026-02-17 04:00 24.97094 52.62065 18999 ft 271 kts 111°
2026-02-17 04:00 24.96409 52.64036 19262 ft 272 kts 111°
2026-02-17 04:00 24.95738 52.65964 19495 ft 274 kts 111°
2026-02-17 04:01 24.95098 52.67939 19729 ft 275 kts 107°
2026-02-17 04:01 24.94547 52.69961 19976 ft 276 kts 106°
2026-02-17 04:01 24.94025 52.71997 20213 ft 277 kts 105°
2026-02-17 04:01 24.93519 52.74054 20438 ft 278 kts 105°
2026-02-17 04:02 24.93021 52.76119 20677 ft 279 kts 105°
2026-02-17 04:02 24.92523 52.78195 20899 ft 281 kts 105°
2026-02-17 04:02 24.92023 52.80280 21119 ft 282 kts 105°
2026-02-17 04:03 24.91007 52.84479 21564 ft 285 kts 105°
2026-02-17 04:03 24.90494 52.86587 21781 ft 286 kts 105°
2026-02-17 04:03 24.89977 52.88708 22003 ft 287 kts 105°
2026-02-17 04:03 24.89457 52.90838 22203 ft 288 kts 105°
2026-02-17 04:04 24.88935 52.92977 22425 ft 290 kts 105°
2026-02-17 04:04 24.88410 52.95125 22633 ft 291 kts 105°
2026-02-17 04:04 24.87883 52.97277 22841 ft 292 kts 105°
2026-02-17 04:04 24.87352 52.99445 23050 ft 294 kts 105°
2026-02-17 04:05 24.86827 53.01592 23240 ft 295 kts 105°
2026-02-17 04:05 24.86290 53.03782 23461 ft 296 kts 105°
2026-02-17 04:05 24.85751 53.05980 23647 ft 297 kts 105°
2026-02-17 04:05 24.85211 53.08183 23847 ft 299 kts 105°
2026-02-17 04:06 24.84667 53.10396 24046 ft 300 kts 105°
2026-02-17 04:06 24.84122 53.12616 24244 ft 301 kts 105°
2026-02-17 04:06 24.83574 53.14845 24434 ft 302 kts 105°
2026-02-17 04:07 24.82471 53.19327 24814 ft 305 kts 105°
2026-02-17 04:07 24.81915 53.21581 24993 ft 306 kts 105°
2026-02-17 04:07 24.81358 53.23844 25183 ft 307 kts 105°
2026-02-17 04:07 24.80797 53.26115 25362 ft 308 kts 105°
2026-02-17 04:08 24.80234 53.28396 25553 ft 309 kts 105°
2026-02-17 04:08 24.79667 53.30690 25723 ft 311 kts 105°
2026-02-17 04:08 24.79100 53.32986 25897 ft 312 kts 105°
2026-02-17 04:08 24.78529 53.35292 26074 ft 313 kts 105°
2026-02-17 04:09 24.77963 53.37576 26242 ft 314 kts 105°
2026-02-17 04:09 24.77387 53.39896 26398 ft 315 kts 105°
2026-02-17 04:09 24.76809 53.42225 26577 ft 316 kts 105°
2026-02-17 04:09 24.76227 53.44568 26742 ft 317 kts 105°
2026-02-17 04:10 24.75642 53.46919 26909 ft 318 kts 105°
2026-02-17 04:10 24.75057 53.49271 27069 ft 319 kts 105°
2026-02-17 04:10 24.74469 53.51634 27240 ft 321 kts 105°
2026-02-17 04:11 24.73292 53.56355 27542 ft 323 kts 105°
2026-02-17 04:11 24.72698 53.58736 27694 ft 324 kts 105°
2026-02-17 04:11 24.71500 53.63534 27991 ft 326 kts 105°
2026-02-17 04:12 24.70898 53.65941 28141 ft 327 kts 105°
2026-02-17 04:12 24.70293 53.68358 28300 ft 328 kts 105°
2026-02-17 04:12 24.69687 53.70779 28445 ft 329 kts 105°
2026-02-17 04:12 24.69078 53.73208 28588 ft 330 kts 105°
2026-02-17 04:13 24.68469 53.75639 28727 ft 331 kts 105°
2026-02-17 04:13 24.67855 53.78084 28865 ft 332 kts 105°
2026-02-17 04:13 24.67240 53.80532 29006 ft 333 kts 105°
2026-02-17 04:13 24.66623 53.82989 29140 ft 334 kts 105°
2026-02-17 04:14 24.66004 53.85450 29275 ft 335 kts 105°
2026-02-17 04:14 24.65381 53.87925 29409 ft 336 kts 105°
2026-02-17 04:14 24.64757 53.90402 29534 ft 337 kts 105°
2026-02-17 04:15 24.63519 53.95393 29800 ft 339 kts 104°
2026-02-17 04:15 24.62944 53.97904 29928 ft 339 kts 104°
2026-02-17 04:15 24.62393 54.00394 30057 ft 340 kts 103°
2026-02-17 04:15 24.61840 54.02928 30175 ft 341 kts 103°
2026-02-17 04:16 24.61287 54.05463 30297 ft 342 kts 103°
2026-02-17 04:16 24.60729 54.08013 30419 ft 343 kts 103°
2026-02-17 04:16 24.60167 54.10563 30537 ft 344 kts 104°
2026-02-17 04:16 24.59601 54.13121 30655 ft 345 kts 104°
2026-02-17 04:17 24.59030 54.15691 30771 ft 346 kts 104°
2026-02-17 04:17 24.58457 54.18261 30882 ft 346 kts 104°
2026-02-17 04:17 24.57882 54.20841 30996 ft 347 kts 104°
2026-02-17 04:17 24.57307 54.23417 31114 ft 348 kts 104°
2026-02-17 04:18 24.56729 54.26005 31221 ft 349 kts 104°
2026-02-17 04:18 24.56150 54.28594 31330 ft 350 kts 104°
2026-02-17 04:18 24.55556 54.31151 31440 ft 350 kts 107°
2026-02-17 04:19 24.53673 54.36105 31633 ft 352 kts 120°
2026-02-17 04:19 24.52321 54.38344 31740 ft 352 kts 128°
2026-02-17 04:19 24.50695 54.40367 31853 ft 353 kts 136°
2026-02-17 04:19 24.48870 54.42174 31929 ft 354 kts 140°
2026-02-17 04:20 24.46979 54.43909 32041 ft 354 kts 141°
2026-02-17 04:20 24.45059 54.45612 32146 ft 355 kts 141°
2026-02-17 04:20 24.41231 54.49001 32323 ft 357 kts 139°
2026-02-17 04:21 24.37904 54.53088 32518 ft 358 kts 125°
2026-02-17 04:21 24.35160 54.57627 32692 ft 360 kts 122°
2026-02-17 04:22 24.32499 54.62291 32879 ft 361 kts 122°
2026-02-17 04:23 24.28472 54.69307 33145 ft 363 kts 122°
2026-02-17 04:23 24.25754 54.73992 33312 ft 365 kts 122°
2026-02-17 04:24 24.23016 54.78697 33477 ft 366 kts 122°
2026-02-17 04:24 24.20290 54.83378 33638 ft 367 kts 122°
2026-02-17 04:25 24.17534 54.88106 33794 ft 369 kts 123°
2026-02-17 04:25 24.14767 54.92852 33959 ft 370 kts 123°
2026-02-17 04:26 24.11988 54.97612 34100 ft 371 kts 123°
2026-02-17 04:26 24.09201 55.02383 34246 ft 373 kts 123°
2026-02-17 04:27 24.06401 55.07169 34390 ft 374 kts 123°
2026-02-17 04:27 24.04999 55.09566 34449 ft 374 kts 123°
2026-02-17 04:27 24.02203 55.14338 34606 ft 375 kts 123°
2026-02-17 04:28 23.99379 55.19155 34738 ft 377 kts 123°
2026-02-17 04:28 23.96541 55.23990 34865 ft 378 kts 123°
2026-02-17 04:29 23.93695 55.28835 35007 ft 379 kts 123°
2026-02-17 04:29 23.91214 55.33919 35115 ft 380 kts 115°
2026-02-17 04:30 23.88999 55.39175 35239 ft 381 kts 114°
2026-02-17 04:31 23.86110 55.46221 35394 ft 382 kts 114°
2026-02-17 04:31 23.83573 55.52392 35530 ft 383 kts 114°
2026-02-17 04:32 23.81262 55.57651 35651 ft 384 kts 116°
2026-02-17 04:32 23.79253 55.61984 35732 ft 385 kts 117°
2026-02-17 04:33 23.76820 55.67204 35831 ft 386 kts 117°
2026-02-17 04:33 23.74392 55.72444 35942 ft 387 kts 117°
2026-02-17 04:34 23.71968 55.77695 36052 ft 388 kts 117°
2026-02-17 04:34 23.69537 55.82959 36127 ft 389 kts 117°
2026-02-17 04:35 23.67098 55.88232 36229 ft 390 kts 117°
2026-02-17 04:35 23.65888 55.90842 36273 ft 390 kts 117°
2026-02-17 04:35 23.63434 55.96135 36358 ft 391 kts 117°
2026-02-17 04:36 23.60976 56.01429 36438 ft 392 kts 117°
2026-02-17 04:36 23.58505 56.06747 36516 ft 393 kts 117°
2026-02-17 04:37 23.56043 56.12039 36595 ft 394 kts 117°
2026-02-17 04:37 23.53562 56.17369 36680 ft 394 kts 117°
2026-02-17 04:38 23.51071 56.22713 36739 ft 395 kts 117°
2026-02-17 04:39 23.47328 56.30735 36843 ft 396 kts 117°
2026-02-17 04:39 23.44822 56.36099 36881 ft 398 kts 117°
2026-02-17 04:40 23.42306 56.41477 36951 ft 399 kts 117°
2026-02-17 04:40 23.39787 56.46856 37022 ft 399 kts 117°
2026-02-17 04:41 23.37276 56.52212 37065 ft 400 kts 117°
2026-02-17 04:41 23.34741 56.57611 37127 ft 401 kts 117°
2026-02-17 04:42 23.32202 56.63015 37206 ft 401 kts 117°
2026-02-17 04:42 23.29659 56.68420 37260 ft 401 kts 117°
2026-02-17 04:43 23.25835 56.76539 37333 ft 402 kts 117°
2026-02-17 04:43 23.23276 56.81964 37385 ft 403 kts 117°
2026-02-17 04:44 23.20714 56.87390 37420 ft 404 kts 117°
2026-02-17 04:44 23.18161 56.92790 37466 ft 405 kts 117°
2026-02-17 04:45 23.15583 56.98236 37475 ft 406 kts 117°
2026-02-17 04:45 23.12974 57.03742 37318 ft 412 kts 117°
2026-02-17 04:46 23.10352 57.09269 37460 ft 410 kts 117°
2026-02-17 04:47 23.06444 57.17498 37635 ft 407 kts 117°
2026-02-17 04:47 23.03843 57.22967 37685 ft 408 kts 117°
2026-02-17 04:48 23.01253 57.28405 37739 ft 408 kts 117°
2026-02-17 04:48 22.98629 57.33907 37775 ft 408 kts 117°
2026-02-17 04:49 22.96034 57.39340 37800 ft 409 kts 117°
2026-02-17 04:49 22.93413 57.44821 37825 ft 409 kts 117°
2026-02-17 04:50 22.90780 57.50321 37885 ft 409 kts 117°
2026-02-17 04:50 22.88174 57.55760 37923 ft 409 kts 117°
2026-02-17 04:51 22.84235 57.63970 37981 ft 409 kts 117°
2026-02-17 04:51 22.81601 57.69451 38021 ft 410 kts 117°
2026-02-17 04:52 22.78968 57.74923 38054 ft 410 kts 117°
2026-02-17 04:52 22.76330 57.80403 38093 ft 410 kts 117°
2026-02-17 04:53 22.73685 57.85890 38115 ft 410 kts 117°
2026-02-17 04:53 22.71039 57.91372 38148 ft 411 kts 117°
2026-02-17 04:54 22.68384 57.96867 38173 ft 411 kts 117°
2026-02-17 04:55 22.64416 58.05069 38208 ft 411 kts 118°
2026-02-17 04:55 22.61758 58.10555 38244 ft 411 kts 118°
2026-02-17 04:56 22.59097 58.16042 38264 ft 412 kts 118°
2026-02-17 04:56 22.56432 58.21530 38282 ft 412 kts 118°
2026-02-17 04:57 22.53763 58.27021 38308 ft 412 kts 118°
2026-02-17 04:57 22.51103 58.32489 38333 ft 413 kts 118°
2026-02-17 04:58 22.48426 58.37984 38355 ft 413 kts 118°
2026-02-17 04:58 22.45746 58.43479 38377 ft 413 kts 118°
2026-02-17 04:59 22.41722 58.51721 38425 ft 413 kts 118°
2026-02-17 04:59 22.39029 58.57228 38436 ft 414 kts 118°
2026-02-17 05:00 22.36340 58.62722 38455 ft 414 kts 118°
2026-02-17 05:00 22.33649 58.68214 38472 ft 414 kts 118°
2026-02-17 05:01 22.30952 58.73712 38490 ft 414 kts 118°
2026-02-17 05:01 22.28271 58.79173 38525 ft 414 kts 118°
2026-02-17 05:02 22.25570 58.84666 38537 ft 414 kts 118°
2026-02-17 05:03 22.20865 58.92474 38560 ft 414 kts 128°
2026-02-17 05:03 22.17216 58.97290 38583 ft 414 kts 130°
2026-02-17 05:04 22.13508 59.02059 38604 ft 414 kts 130°
2026-02-17 05:04 22.09799 59.06831 38621 ft 414 kts 130°
2026-02-17 05:05 22.06129 59.11570 38631 ft 414 kts 130°
2026-02-17 05:05 22.02430 59.16352 38665 ft 415 kts 130°
2026-02-17 05:06 21.98736 59.21125 38681 ft 415 kts 130°
2026-02-17 05:06 21.95039 59.25896 38703 ft 415 kts 130°
2026-02-17 05:07 21.89491 59.33049 38735 ft 415 kts 130°
2026-02-17 05:07 21.85789 59.37816 38753 ft 415 kts 130°
2026-02-17 05:08 21.82086 59.42579 38781 ft 415 kts 130°
2026-02-17 05:08 21.78379 59.47344 38787 ft 415 kts 130°
2026-02-17 05:09 21.74690 59.52081 38803 ft 415 kts 130°
2026-02-17 05:09 21.70983 59.56839 38817 ft 415 kts 130°
2026-02-17 05:10 21.67272 59.61596 38832 ft 415 kts 130°
2026-02-17 05:11 21.61704 59.68727 38851 ft 415 kts 130°
2026-02-17 05:11 21.57988 59.73479 38863 ft 415 kts 130°
2026-02-17 05:12 21.54287 59.78205 38877 ft 415 kts 130°
2026-02-17 05:12 21.50549 59.82957 38888 ft 416 kts 130°
2026-02-17 05:13 21.46813 59.87698 38895 ft 416 kts 130°
2026-02-17 05:13 21.43077 59.92437 38905 ft 416 kts 130°
2026-02-17 05:14 21.39337 59.97177 38929 ft 416 kts 130°
2026-02-17 05:14 21.35617 60.01888 38938 ft 416 kts 130°
2026-02-17 05:15 21.29998 60.08997 38953 ft 416 kts 130°
2026-02-17 05:15 21.26247 60.13737 38957 ft 416 kts 130°
2026-02-17 05:16 21.22501 60.18472 38968 ft 416 kts 130°
2026-02-17 05:16 21.18756 60.23214 38979 ft 417 kts 130°
2026-02-17 05:17 21.15027 60.27932 38988 ft 417 kts 130°
2026-02-17 05:17 21.11274 60.32676 38991 ft 417 kts 130°
2026-02-17 05:18 21.07523 60.37413 39002 ft 417 kts 130°
2026-02-17 05:19 21.01912 60.44490 39002 ft 417 kts 130°
2026-02-17 05:19 20.98149 60.49231 39005 ft 418 kts 130°
2026-02-17 05:20 20.94384 60.53971 39000 ft 418 kts 130°
2026-02-17 05:20 20.91253 60.57910 38997 ft 418 kts 130°
2026-02-17 05:21 20.87479 60.62654 38997 ft 419 kts 130°
2026-02-17 05:21 20.81806 60.69777 39012 ft 419 kts 130°
2026-02-17 05:22 20.78018 60.74528 39002 ft 419 kts 130°
2026-02-17 05:23 20.72352 60.81628 39000 ft 420 kts 130°
2026-02-17 05:23 20.68556 60.86380 38999 ft 420 kts 130°
2026-02-17 05:24 20.64757 60.91130 39005 ft 421 kts 130°
2026-02-17 05:24 20.61125 60.96025 39006 ft 421 kts 124°
2026-02-17 05:25 20.57903 61.01245 38998 ft 421 kts 123°
2026-02-17 05:25 20.54756 61.06528 38997 ft 422 kts 122°
2026-02-17 05:26 20.51613 61.11822 39004 ft 422 kts 122°
2026-02-17 05:26 20.48480 61.17078 38999 ft 422 kts 122°
2026-02-17 05:27 20.43737 61.25002 38997 ft 423 kts 123°
2026-02-17 05:27 20.40569 61.30287 39000 ft 423 kts 123°
2026-02-17 05:28 20.37392 61.35581 39002 ft 423 kts 123°
2026-02-17 05:28 20.34240 61.40831 39000 ft 423 kts 123°
2026-02-17 05:29 20.31059 61.46124 39000 ft 424 kts 123°
2026-02-17 05:29 20.27873 61.51421 38997 ft 424 kts 123°
2026-02-17 05:30 20.24684 61.56717 39006 ft 424 kts 123°
2026-02-17 05:31 20.19899 61.64656 39004 ft 425 kts 123°
2026-02-17 05:31 20.16706 61.69947 38999 ft 425 kts 123°
2026-02-17 05:32 20.13503 61.75251 38997 ft 425 kts 123°
2026-02-17 05:32 20.10318 61.80519 38997 ft 425 kts 123°
2026-02-17 05:33 20.07114 61.85814 38997 ft 426 kts 123°
2026-02-17 05:33 20.03906 61.91111 39006 ft 426 kts 123°
2026-02-17 05:34 20.00694 61.96410 38997 ft 426 kts 123°
2026-02-17 05:34 19.97473 62.01719 38997 ft 427 kts 123°
2026-02-17 05:35 19.92643 62.09672 39003 ft 427 kts 123°
2026-02-17 05:35 19.89440 62.14939 39000 ft 427 kts 123°
2026-02-17 05:36 19.86212 62.20242 38999 ft 427 kts 123°
2026-02-17 05:36 19.82979 62.25550 39005 ft 428 kts 123°
2026-02-17 05:37 19.79744 62.30856 38997 ft 428 kts 123°
2026-02-17 05:37 19.76504 62.36166 38997 ft 428 kts 123°
2026-02-17 05:38 19.73282 62.41441 38997 ft 428 kts 123°
2026-02-17 05:39 19.68412 62.49405 39002 ft 429 kts 123°
2026-02-17 05:39 19.65163 62.54713 38997 ft 429 kts 123°
2026-02-17 05:40 19.61912 62.60019 39000 ft 429 kts 123°
2026-02-17 05:40 19.58657 62.65327 38997 ft 429 kts 123°
2026-02-17 05:41 19.55399 62.70635 39000 ft 429 kts 123°
2026-02-17 05:41 19.52135 62.75948 39000 ft 430 kts 123°
2026-02-17 05:42 19.48869 62.81260 38997 ft 430 kts 123°
2026-02-17 05:42 19.45603 62.86568 39000 ft 430 kts 123°
2026-02-17 05:43 19.40715 62.94503 39001 ft 430 kts 123°
2026-02-17 05:43 19.37437 62.99818 38997 ft 431 kts 123°
2026-02-17 05:44 19.34159 63.05128 39003 ft 431 kts 123°
2026-02-17 05:44 19.30873 63.10446 38997 ft 431 kts 123°
2026-02-17 05:45 19.27587 63.15761 38997 ft 431 kts 123°
2026-02-17 05:45 19.24325 63.21032 38997 ft 431 kts 123°
2026-02-17 05:46 19.21030 63.26352 39000 ft 431 kts 123°
2026-02-17 05:47 19.16090 63.34319 39001 ft 432 kts 123°
2026-02-17 05:47 19.11141 63.42289 39004 ft 432 kts 123°
2026-02-17 05:48 19.07861 63.47566 38998 ft 432 kts 123°
2026-02-17 05:48 19.04557 63.52878 39000 ft 432 kts 123°
2026-02-17 05:49 19.01247 63.58194 38997 ft 432 kts 123°
2026-02-17 05:49 18.97939 63.63504 38999 ft 432 kts 123°
2026-02-17 05:50 18.94627 63.68817 38997 ft 433 kts 123°
2026-02-17 05:51 18.89658 63.76779 39000 ft 433 kts 123°
2026-02-17 05:51 18.86343 63.82084 38997 ft 433 kts 123°
2026-02-17 05:52 18.83045 63.87358 39000 ft 433 kts 123°
2026-02-17 05:52 18.79725 63.92663 38997 ft 433 kts 123°
2026-02-17 05:53 18.76403 63.97968 38999 ft 433 kts 123°
2026-02-17 05:53 18.73076 64.03275 39001 ft 433 kts 123°
2026-02-17 05:54 18.69749 64.08579 38999 ft 433 kts 123°
2026-02-17 05:54 18.66418 64.13882 39000 ft 434 kts 123°
2026-02-17 05:55 18.61435 64.21809 38997 ft 434 kts 123°
2026-02-17 05:55 18.58103 64.27106 39006 ft 434 kts 123°
2026-02-17 05:56 18.54765 64.32406 39001 ft 434 kts 123°
2026-02-17 05:56 18.51424 64.37706 38999 ft 434 kts 123°
2026-02-17 05:57 18.48081 64.43006 39000 ft 434 kts 123°
2026-02-17 05:57 18.44736 64.48305 38997 ft 434 kts 124°
2026-02-17 05:58 18.41407 64.53573 38997 ft 434 kts 124°
2026-02-17 05:59 18.36381 64.61519 38997 ft 434 kts 124°
2026-02-17 05:59 18.33030 64.66812 38999 ft 435 kts 124°
2026-02-17 06:00 18.29670 64.72113 38999 ft 435 kts 124°
2026-02-17 06:00 18.26312 64.77408 39000 ft 435 kts 124°
2026-02-17 06:01 18.22957 64.82695 39004 ft 435 kts 124°
2026-02-17 06:01 18.19595 64.87987 39000 ft 435 kts 124°
2026-02-17 06:02 18.16228 64.93282 38997 ft 435 kts 124°
2026-02-17 06:02 18.12887 64.98533 38997 ft 435 kts 124°
2026-02-17 06:03 18.07835 65.06465 39004 ft 435 kts 124°
2026-02-17 06:03 18.04463 65.11754 39000 ft 435 kts 124°
2026-02-17 06:04 18.01090 65.17041 39000 ft 435 kts 124°
2026-02-17 06:04 17.97716 65.22323 38997 ft 435 kts 124°
2026-02-17 06:05 17.94339 65.27607 39001 ft 435 kts 124°
2026-02-17 06:05 17.90962 65.32887 38997 ft 435 kts 124°
2026-02-17 06:06 17.87583 65.38165 38999 ft 435 kts 124°
2026-02-17 06:07 17.82529 65.46051 39000 ft 436 kts 124°
2026-02-17 06:07 17.79143 65.51330 38997 ft 436 kts 124°
2026-02-17 06:08 17.75761 65.56600 38997 ft 436 kts 124°
2026-02-17 06:08 17.72941 65.60989 39005 ft 436 kts 124°
2026-02-17 06:09 17.69550 65.66264 39000 ft 436 kts 124°
2026-02-17 06:09 17.66157 65.71538 39001 ft 436 kts 124°
2026-02-17 06:10 17.62764 65.76807 38997 ft 436 kts 124°
2026-02-17 06:10 17.59420 65.82110 39000 ft 436 kts 123°
2026-02-17 06:11 17.54513 65.90102 39000 ft 436 kts 123°
2026-02-17 06:11 17.51226 65.95450 38997 ft 436 kts 123°
2026-02-17 06:12 17.47934 66.00786 38999 ft 436 kts 123°
2026-02-17 06:12 17.44656 66.06089 38997 ft 436 kts 123°
2026-02-17 06:13 17.41355 66.11425 39000 ft 436 kts 123°
2026-02-17 06:13 17.38057 66.16753 39005 ft 436 kts 123°
2026-02-17 06:14 17.34753 66.22086 38999 ft 436 kts 123°
2026-02-17 06:15 17.29795 66.30082 39001 ft 436 kts 123°
2026-02-17 06:15 17.26489 66.35408 39002 ft 436 kts 123°
2026-02-17 06:16 17.23202 66.40699 39001 ft 436 kts 123°
2026-02-17 06:16 17.19896 66.46017 39002 ft 436 kts 123°
2026-02-17 06:17 17.14928 66.54002 38997 ft 436 kts 123°
2026-02-17 06:17 17.11611 66.59328 39000 ft 436 kts 123°
2026-02-17 06:18 17.08296 66.64645 38997 ft 436 kts 123°
2026-02-17 06:19 17.03320 66.72619 38997 ft 436 kts 123°
2026-02-17 06:19 17.00020 66.77903 38999 ft 436 kts 123°
2026-02-17 06:20 16.96697 66.83220 38997 ft 436 kts 123°
2026-02-17 06:20 16.93372 66.88535 39000 ft 436 kts 123°
2026-02-17 06:21 16.90049 66.93843 39006 ft 436 kts 123°
2026-02-17 06:21 16.86722 66.99154 39000 ft 436 kts 123°
2026-02-17 06:22 16.83415 67.04429 39002 ft 437 kts 123°
2026-02-17 06:22 16.80087 67.09733 39000 ft 437 kts 123°
2026-02-17 06:23 16.75091 67.17687 39000 ft 437 kts 123°
2026-02-17 06:23 16.71761 67.22986 39002 ft 437 kts 123°
2026-02-17 06:24 16.68426 67.28287 38997 ft 437 kts 123°
2026-02-17 06:24 16.65094 67.33580 39000 ft 437 kts 123°
2026-02-17 06:25 16.61777 67.38843 39000 ft 437 kts 123°
2026-02-17 06:25 16.58436 67.44143 39002 ft 436 kts 123°
2026-02-17 06:26 16.55099 67.49431 39001 ft 436 kts 123°
2026-02-17 06:27 16.50094 67.57357 39005 ft 436 kts 123°
2026-02-17 06:27 16.46752 67.62643 38997 ft 437 kts 123°
2026-02-17 06:28 16.43407 67.67930 38999 ft 437 kts 123°
2026-02-17 06:28 16.40087 67.73174 39005 ft 437 kts 123°
2026-02-17 06:29 16.36737 67.78461 39001 ft 437 kts 123°
2026-02-17 06:29 16.33392 67.83738 38999 ft 437 kts 123°
2026-02-17 06:30 16.30047 67.89009 38997 ft 437 kts 123°
2026-02-17 06:30 16.26696 67.94289 39001 ft 437 kts 123°
2026-02-17 06:31 16.21703 68.02221 39002 ft 437 kts 123°
2026-02-17 06:31 16.18376 68.07517 39000 ft 437 kts 123°
2026-02-17 06:32 16.15069 68.12773 38997 ft 437 kts 123°
2026-02-17 06:32 16.11735 68.18064 38997 ft 437 kts 123°
2026-02-17 06:33 16.08402 68.23350 38997 ft 437 kts 123°
2026-02-17 06:33 16.05072 68.28628 39003 ft 437 kts 123°
2026-02-17 06:34 16.01734 68.33915 38997 ft 437 kts 123°
2026-02-17 06:35 15.96756 68.41791 39008 ft 437 kts 123°
2026-02-17 06:35 15.93419 68.47066 38997 ft 437 kts 123°
2026-02-17 06:36 15.90079 68.52343 38999 ft 437 kts 123°
2026-02-17 06:36 15.86742 68.57611 39000 ft 437 kts 123°
2026-02-17 06:37 15.83400 68.62883 39000 ft 437 kts 123°
2026-02-17 06:37 15.80057 68.68152 39002 ft 437 kts 123°
2026-02-17 06:38 15.76715 68.73417 39003 ft 437 kts 123°
2026-02-17 06:38 15.73371 68.78681 39003 ft 437 kts 123°
2026-02-17 06:39 15.68348 68.86581 38997 ft 437 kts 123°
2026-02-17 06:39 15.65021 68.91809 39002 ft 437 kts 123°
2026-02-17 06:40 15.61673 68.97065 39000 ft 437 kts 123°
2026-02-17 06:40 15.58322 69.02324 39002 ft 437 kts 123°
2026-02-17 06:41 15.54970 69.07580 39000 ft 437 kts 123°
2026-02-17 06:41 15.51616 69.12835 38997 ft 437 kts 123°
2026-02-17 06:42 15.48263 69.18085 39000 ft 437 kts 123°
2026-02-17 06:43 15.43230 69.25961 38997 ft 436 kts 123°
2026-02-17 06:43 15.39873 69.31208 38997 ft 436 kts 123°
2026-02-17 06:44 15.36535 69.36422 39005 ft 436 kts 123°
2026-02-17 06:44 15.33178 69.41662 39000 ft 436 kts 123°
2026-02-17 06:45 15.29815 69.46908 39001 ft 436 kts 123°
2026-02-17 06:45 15.26451 69.52153 39002 ft 436 kts 123°
2026-02-17 06:46 15.23090 69.57389 39000 ft 436 kts 123°
2026-02-17 06:46 15.19727 69.62625 38997 ft 436 kts 124°
2026-02-17 06:47 15.14707 69.70432 39002 ft 436 kts 124°
2026-02-17 06:47 15.11346 69.75663 39002 ft 436 kts 123°
2026-02-17 06:48 15.08009 69.80909 38997 ft 436 kts 123°
2026-02-17 06:48 15.04681 69.86162 38999 ft 436 kts 123°
2026-02-17 06:49 15.01352 69.91410 39002 ft 436 kts 123°
2026-02-17 06:49 14.98024 69.96648 39006 ft 436 kts 123°
2026-02-17 06:50 14.94691 70.01888 38997 ft 436 kts 123°
2026-02-17 06:51 14.89709 70.09713 38998 ft 436 kts 123°
2026-02-17 06:51 14.86374 70.14947 39000 ft 436 kts 123°
2026-02-17 06:52 14.83040 70.20178 39000 ft 436 kts 123°
2026-02-17 06:52 14.79701 70.25412 39000 ft 436 kts 123°
2026-02-17 06:53 14.76362 70.30642 38997 ft 436 kts 123°
2026-02-17 06:53 14.73016 70.35881 39001 ft 436 kts 123°
2026-02-17 06:54 14.69700 70.41068 39005 ft 436 kts 123°
2026-02-17 06:54 14.66360 70.46289 38999 ft 436 kts 123°
2026-02-17 06:55 14.61349 70.54117 38998 ft 436 kts 123°
2026-02-17 06:55 14.58568 70.58458 38998 ft 435 kts 123°
2026-02-17 06:56 14.55225 70.63674 38997 ft 435 kts 123°
2026-02-17 06:56 14.51879 70.68891 39006 ft 435 kts 123°
2026-02-17 06:57 14.48529 70.74110 38997 ft 435 kts 123°
2026-02-17 06:57 14.45180 70.79324 38997 ft 435 kts 123°
2026-02-17 06:58 14.41852 70.84502 38998 ft 435 kts 123°
2026-02-17 06:59 14.36828 70.92314 39004 ft 436 kts 123°
2026-02-17 06:59 14.33486 70.97536 39001 ft 436 kts 123°
2026-02-17 07:00 14.30182 71.02770 39000 ft 436 kts 123°
2026-02-17 07:00 14.26876 71.08016 38997 ft 436 kts 123°
2026-02-17 07:01 14.23572 71.13249 39000 ft 436 kts 123°
2026-02-17 07:01 14.20263 71.18483 39001 ft 436 kts 123°
2026-02-17 07:02 14.16952 71.23713 39002 ft 436 kts 123°
2026-02-17 07:02 14.13638 71.28946 38999 ft 436 kts 123°
2026-02-17 07:03 14.08684 71.36762 39000 ft 436 kts 123°
2026-02-17 07:03 14.05369 71.41988 39002 ft 436 kts 123°
2026-02-17 07:04 14.02052 71.47213 38999 ft 436 kts 123°
2026-02-17 07:04 13.98735 71.52436 38999 ft 435 kts 123°
2026-02-17 07:05 13.95420 71.57653 39000 ft 435 kts 123°
2026-02-17 07:05 13.92098 71.62876 39008 ft 435 kts 123°
2026-02-17 07:06 13.88802 71.68055 38999 ft 435 kts 123°
2026-02-17 07:07 13.83819 71.75881 39000 ft 435 kts 123°
2026-02-17 07:07 13.80498 71.81091 39002 ft 435 kts 123°
2026-02-17 07:08 13.77168 71.86314 38997 ft 435 kts 123°
2026-02-17 07:08 13.73844 71.91524 39006 ft 435 kts 123°
2026-02-17 07:09 13.70522 71.96727 39001 ft 435 kts 123°
2026-02-17 07:09 13.66986 72.01783 38997 ft 435 kts 128°
2026-02-17 07:10 13.63205 72.06646 39000 ft 435 kts 129°
2026-02-17 07:10 13.59405 72.11442 39013 ft 435 kts 129°
2026-02-17 07:11 13.53668 72.18675 39004 ft 435 kts 129°
2026-02-17 07:11 13.49845 72.23504 38999 ft 435 kts 129°
2026-02-17 07:12 13.46029 72.28325 38997 ft 435 kts 129°
2026-02-17 07:12 13.42203 72.33157 39006 ft 435 kts 129°
2026-02-17 07:13 13.38380 72.37981 38999 ft 435 kts 129°
2026-02-17 07:13 13.34560 72.42799 39002 ft 435 kts 129°
2026-02-17 07:14 13.30740 72.47614 38999 ft 435 kts 129°
2026-02-17 07:15 13.25031 72.54805 38997 ft 435 kts 129°
2026-02-17 07:15 13.21206 72.59619 38997 ft 435 kts 129°
2026-02-17 07:16 13.17378 72.64435 39001 ft 435 kts 129°
2026-02-17 07:16 13.13550 72.69248 39005 ft 435 kts 129°
2026-02-17 07:17 13.09746 72.74029 38997 ft 435 kts 129°
2026-02-17 07:17 13.05909 72.78848 39000 ft 435 kts 129°
2026-02-17 07:18 13.02080 72.83654 39002 ft 435 kts 129°
2026-02-17 07:18 12.98250 72.88460 39001 ft 435 kts 129°
2026-02-17 07:19 12.92507 72.95660 39003 ft 435 kts 129°
2026-02-17 07:19 12.88675 73.00462 38997 ft 435 kts 129°
2026-02-17 07:20 12.84870 73.05226 38997 ft 435 kts 129°
2026-02-17 07:20 12.81037 73.10024 39000 ft 435 kts 129°
2026-02-17 07:21 12.77206 73.14816 39000 ft 435 kts 129°
2026-02-17 07:21 12.73368 73.19614 38997 ft 435 kts 129°
2026-02-17 07:22 12.69536 73.24403 38997 ft 435 kts 129°
2026-02-17 07:23 12.63779 73.31593 39000 ft 435 kts 129°
2026-02-17 07:23 12.58030 73.38766 39005 ft 434 kts 129°
2026-02-17 07:24 12.54217 73.43521 39001 ft 434 kts 129°
2026-02-17 07:24 12.50382 73.48301 38998 ft 434 kts 129°
2026-02-17 07:25 12.46550 73.53074 39000 ft 434 kts 129°
2026-02-17 07:25 12.42705 73.57862 38997 ft 434 kts 129°
2026-02-17 07:26 12.38871 73.62634 39000 ft 434 kts 129°
2026-02-17 07:27 12.33112 73.69796 39011 ft 434 kts 129°
2026-02-17 07:27 12.29273 73.74567 39000 ft 434 kts 129°
2026-02-17 07:28 12.25435 73.79334 39001 ft 434 kts 129°
2026-02-17 07:28 12.21595 73.84102 39002 ft 434 kts 129°
2026-02-17 07:29 12.17777 73.88840 38998 ft 434 kts 129°
2026-02-17 07:29 12.13935 73.93605 39000 ft 434 kts 129°
2026-02-17 07:30 12.10095 73.98367 38997 ft 434 kts 129°
2026-02-17 07:30 12.06251 74.03130 38997 ft 434 kts 129°
2026-02-17 07:31 12.00488 74.10267 39001 ft 434 kts 129°
2026-02-17 07:31 11.96641 74.15027 39000 ft 434 kts 129°
2026-02-17 07:32 11.92798 74.19781 39001 ft 434 kts 129°
2026-02-17 07:32 11.88953 74.24535 39003 ft 434 kts 129°
2026-02-17 07:33 11.85109 74.29285 39001 ft 434 kts 129°
2026-02-17 07:33 11.81265 74.34033 38997 ft 434 kts 129°
2026-02-17 07:34 11.77417 74.38784 38999 ft 434 kts 130°
2026-02-17 07:35 11.71671 74.45874 39005 ft 434 kts 130°
2026-02-17 07:35 11.67819 74.50623 39001 ft 434 kts 130°
2026-02-17 07:36 11.63972 74.55364 38997 ft 434 kts 130°
2026-02-17 07:36 11.60121 74.60108 38997 ft 434 kts 130°
2026-02-17 07:37 11.56272 74.64848 38997 ft 434 kts 130°
2026-02-17 07:37 11.52420 74.69588 39002 ft 434 kts 130°
2026-02-17 07:38 11.48565 74.74331 39000 ft 434 kts 130°
2026-02-17 07:38 11.44733 74.79042 38997 ft 434 kts 130°
2026-02-17 07:39 11.38954 74.86146 38998 ft 434 kts 129°
2026-02-17 07:39 11.35181 74.90946 39002 ft 434 kts 130°
2026-02-17 07:40 11.31294 74.95651 38999 ft 434 kts 130°
2026-02-17 07:40 11.28062 74.99548 38997 ft 434 kts 130°
2026-02-17 07:41 11.24186 75.04266 38999 ft 434 kts 130°
2026-02-17 07:41 11.20330 75.08989 38997 ft 434 kts 130°
2026-02-17 07:42 11.16467 75.13726 38997 ft 434 kts 130°
2026-02-17 07:43 11.10710 75.20779 39002 ft 434 kts 130°
2026-02-17 07:43 11.06849 75.25504 39000 ft 434 kts 130°
2026-02-17 07:44 11.02987 75.30229 39005 ft 434 kts 130°
2026-02-17 07:44 10.99130 75.34946 38997 ft 434 kts 130°
2026-02-17 07:45 10.95267 75.39667 39000 ft 433 kts 130°
2026-02-17 07:45 10.91428 75.44358 39000 ft 433 kts 130°
2026-02-17 07:46 10.87562 75.49078 38999 ft 433 kts 130°
2026-02-17 07:46 10.83698 75.53795 39001 ft 433 kts 130°
2026-02-17 07:47 10.77904 75.60864 38999 ft 433 kts 130°
2026-02-17 07:47 10.74067 75.65542 38997 ft 433 kts 130°
2026-02-17 07:48 10.70202 75.70253 38997 ft 433 kts 130°
2026-02-17 07:48 10.66339 75.74958 39005 ft 433 kts 130°
2026-02-17 07:49 10.62471 75.79669 39002 ft 433 kts 130°
2026-02-17 07:49 10.58609 75.84369 39001 ft 433 kts 130°
2026-02-17 07:50 10.54743 75.89073 38998 ft 433 kts 130°
2026-02-17 07:51 10.48939 75.96130 39001 ft 433 kts 130°
2026-02-17 07:51 10.45066 76.00838 38997 ft 433 kts 130°
2026-02-17 07:52 10.41196 76.05539 39003 ft 433 kts 130°
2026-02-17 07:52 10.37350 76.10209 38998 ft 434 kts 130°
2026-02-17 07:53 10.33480 76.14907 39002 ft 434 kts 130°
2026-02-17 07:53 10.29606 76.19607 39004 ft 434 kts 130°
2026-02-17 07:54 10.23786 76.26664 38998 ft 434 kts 130°
2026-02-17 07:55 10.17997 76.33680 38999 ft 434 kts 130°
2026-02-17 07:55 10.14116 76.38378 39001 ft 434 kts 130°
2026-02-17 07:56 10.10221 76.43070 38998 ft 434 kts 130°
2026-02-17 07:56 10.06331 76.47748 38997 ft 434 kts 130°
2026-02-17 07:57 10.02440 76.52427 39001 ft 434 kts 130°
2026-02-17 07:57 9.98540 76.57116 38997 ft 434 kts 130°
2026-02-17 07:58 9.94672 76.61766 39000 ft 434 kts 130°
2026-02-17 07:58 9.90776 76.66448 38997 ft 434 kts 130°
2026-02-17 07:59 9.84932 76.73467 39005 ft 434 kts 130°
2026-02-17 07:59 9.81034 76.78146 38999 ft 434 kts 130°
2026-02-17 08:00 9.77134 76.82825 39000 ft 434 kts 130°
2026-02-17 08:00 9.73252 76.87481 39001 ft 434 kts 130°
2026-02-17 08:01 9.69349 76.92160 39005 ft 434 kts 130°
2026-02-17 08:01 9.65451 76.96833 39001 ft 434 kts 130°
2026-02-17 08:02 9.61576 77.01475 39005 ft 434 kts 130°
2026-02-17 08:03 9.55725 77.08481 39003 ft 434 kts 130°
2026-02-17 08:03 9.51808 77.13168 38999 ft 440 kts 130°
2026-02-17 08:04 9.47817 77.17943 39002 ft 448 kts 130°
2026-02-17 08:04 9.43743 77.22814 38999 ft 457 kts 130°
2026-02-17 08:05 9.39594 77.27775 39002 ft 466 kts 130°
2026-02-17 08:05 9.35388 77.32800 39004 ft 474 kts 130°
2026-02-17 08:06 9.31087 77.37937 39003 ft 482 kts 130°
2026-02-17 08:06 9.26721 77.43149 39004 ft 489 kts 130°
2026-02-17 08:07 9.20093 77.51059 38997 ft 491 kts 130°
2026-02-17 08:07 9.15677 77.56326 38999 ft 491 kts 130°
2026-02-17 08:08 9.11256 77.61596 38998 ft 491 kts 130°
2026-02-17 08:08 9.06823 77.66878 39000 ft 491 kts 130°
2026-02-17 08:09 9.02434 77.72105 38998 ft 491 kts 130°
2026-02-17 08:09 8.98012 77.77370 39005 ft 491 kts 130°
2026-02-17 08:10 8.93588 77.82634 38997 ft 491 kts 130°
2026-02-17 08:11 8.86952 77.90527 39000 ft 491 kts 130°
2026-02-17 08:11 8.82533 77.95781 39010 ft 490 kts 130°
2026-02-17 08:12 8.78115 78.01032 39006 ft 490 kts 130°
2026-02-17 08:12 8.73688 78.06290 38998 ft 490 kts 130°
2026-02-17 08:13 8.69267 78.11540 38998 ft 490 kts 130°
2026-02-17 08:13 8.64869 78.16760 39004 ft 490 kts 130°
2026-02-17 08:14 8.60451 78.22003 39001 ft 490 kts 130°
2026-02-17 08:14 8.56031 78.27244 39001 ft 490 kts 130°
2026-02-17 08:15 8.49392 78.35114 39001 ft 490 kts 130°
2026-02-17 08:15 8.44967 78.40358 38998 ft 490 kts 130°
2026-02-17 08:16 8.40543 78.45598 38998 ft 490 kts 130°
2026-02-17 08:16 8.36154 78.50793 39000 ft 490 kts 130°
2026-02-17 08:17 8.31719 78.56042 39001 ft 490 kts 130°
2026-02-17 08:17 8.27274 78.61267 39011 ft 490 kts 131°
2026-02-17 08:18 8.22726 78.66407 38998 ft 490 kts 132°
2026-02-17 08:19 8.15871 78.74070 38997 ft 490 kts 132°
2026-02-17 08:19 8.11307 78.79191 39001 ft 490 kts 132°
2026-02-17 08:20 8.06775 78.84284 38998 ft 490 kts 132°
2026-02-17 08:20 8.02221 78.89401 38999 ft 490 kts 132°
2026-02-17 08:21 7.97657 78.94529 38999 ft 490 kts 132°
2026-02-17 08:21 7.93099 78.99646 38998 ft 490 kts 132°
2026-02-17 08:22 7.88572 79.04726 38998 ft 490 kts 132°
2026-02-17 08:22 7.84007 79.09848 38998 ft 490 kts 132°
2026-02-17 08:23 7.77166 79.17520 38997 ft 490 kts 132°
2026-02-17 08:23 7.72607 79.22630 39001 ft 490 kts 132°
2026-02-17 08:24 7.68088 79.27732 39002 ft 490 kts 131°
2026-02-17 08:24 7.63566 79.32889 39000 ft 490 kts 131°
2026-02-17 08:25 7.59051 79.38041 39002 ft 490 kts 131°
2026-02-17 08:25 7.54537 79.43184 39001 ft 490 kts 131°
2026-02-17 08:26 7.50013 79.48333 39000 ft 490 kts 131°
2026-02-17 08:27 7.43248 79.56028 38999 ft 490 kts 131°
2026-02-17 08:27 7.38721 79.61175 38998 ft 490 kts 131°
2026-02-17 08:28 7.34962 79.65448 38998 ft 490 kts 131°
2026-02-17 08:28 7.30522 79.70493 38992 ft 467 kts 131°
2026-02-17 08:28 7.28396 79.72910 38996 ft 454 kts 131°
2026-02-17 08:29 7.26334 79.75253 38991 ft 441 kts 131°
2026-02-17 08:29 7.23692 79.78253 38998 ft 424 kts 131°
2026-02-17 08:29 7.22380 79.79744 38990 ft 416 kts 131°
2026-02-17 08:29 7.20490 79.81890 38996 ft 404 kts 131°
2026-02-17 08:30 7.18654 79.83974 38990 ft 392 kts 131°
2026-02-17 08:30 7.16874 79.85996 38991 ft 380 kts 131°
2026-02-17 08:30 7.15149 79.87957 38988 ft 368 kts 131°
2026-02-17 08:31 7.11874 79.91690 38989 ft 343 kts 131°
2026-02-17 08:31 7.10336 79.93446 38987 ft 338 kts 131°
2026-02-17 08:31 7.07208 79.97016 39042 ft 342 kts 131°
2026-02-17 08:32 7.04038 80.00631 39105 ft 346 kts 131°
2026-02-17 08:32 7.00824 80.04295 39197 ft 350 kts 131°
2026-02-17 08:33 6.97578 80.07992 39269 ft 354 kts 131°
2026-02-17 08:33 6.94326 80.11693 39388 ft 357 kts 131°
2026-02-17 08:34 6.91027 80.15447 39511 ft 359 kts 131°
2026-02-17 08:35 6.86031 80.21126 39686 ft 363 kts 131°
2026-02-17 08:35 6.82691 80.24918 39800 ft 355 kts 131°
2026-02-17 08:36 6.79398 80.28654 39894 ft 357 kts 131°
2026-02-17 08:36 6.76082 80.32411 39999 ft 360 kts 131°
2026-02-17 08:37 6.72769 80.36162 40100 ft 362 kts 132°
2026-02-17 08:37 6.69413 80.39957 40212 ft 363 kts 132°
2026-02-17 08:38 6.66041 80.43764 40320 ft 365 kts 132°
2026-02-17 08:38 6.62709 80.47638 40405 ft 368 kts 130°
2026-02-17 08:39 6.59477 80.51549 40437 ft 353 kts 129°
2026-02-17 08:39 6.58942 80.52236 40429 ft 349 kts 128°
2026-02-17 08:39 6.58783 80.52445 40424 ft 348 kts 128°
2026-02-17 08:40 6.57343 80.54383 40127 ft 347 kts 129°
2026-02-17 08:40 6.55706 80.56184 39582 ft 352 kts 141°
2026-02-17 08:40 6.53802 80.57751 39242 ft 353 kts 142°
2026-02-17 08:40 6.52354 80.58930 39231 ft 355 kts 141°
2026-02-17 08:41 6.49720 80.61127 39153 ft 363 kts 141°
2026-02-17 08:41 6.47679 80.62754 38622 ft 383 kts 143°
2026-02-17 08:41 6.46621 80.63557 38431 ft 392 kts 144°
2026-02-17 08:43 6.43107 80.67022 37726 ft 419 kts 123°
2026-02-17 08:43 6.41594 80.69592 37337 ft 435 kts 120°
2026-02-17 08:43 6.40059 80.72280 36951 ft 450 kts 122°
2026-02-17 08:43 6.38345 80.74970 36696 ft 462 kts 125°
2026-02-17 08:44 6.36440 80.77607 36691 ft 468 kts 128°
2026-02-17 08:44 6.32270 80.82729 36696 ft 478 kts 131°
2026-02-17 08:44 6.30122 80.85224 36691 ft 466 kts 132°
2026-02-17 08:45 6.28024 80.87643 36686 ft 452 kts 132°
2026-02-17 08:45 6.25991 80.89989 36683 ft 438 kts 131°
2026-02-17 08:45 6.24028 80.92267 36689 ft 424 kts 131°
2026-02-17 08:45 6.22131 80.94479 36684 ft 411 kts 131°
2026-02-17 08:46 6.20314 80.96606 36683 ft 400 kts 131°
2026-02-17 08:46 6.16782 81.00751 36687 ft 381 kts 131°
2026-02-17 08:47 6.13415 81.04702 36686 ft 363 kts 131°
2026-02-17 08:47 6.11791 81.06608 36684 ft 354 kts 131°
2026-02-17 08:47 6.08657 81.10260 36686 ft 336 kts 131°
2026-02-17 08:48 6.05691 81.13704 36680 ft 316 kts 131°
2026-02-17 08:48 6.02831 81.16977 36705 ft 313 kts 133°
2026-02-17 08:49 5.99816 81.20164 36788 ft 320 kts 136°
2026-02-17 08:49 5.96560 81.23273 36894 ft 326 kts 139°
2026-02-17 08:50 5.93062 81.26228 37056 ft 331 kts 143°
2026-02-17 08:50 5.91203 81.27641 36811 ft 344 kts 145°
2026-02-17 08:51 5.86983 81.30582 35823 ft 388 kts 147°
2026-02-17 08:51 5.84721 81.32138 35697 ft 399 kts 143°
2026-02-17 08:51 5.82604 81.33976 35709 ft 405 kts 138°
2026-02-17 08:52 5.78616 81.38109 35725 ft 419 kts 132°
2026-02-17 08:52 5.74418 81.43844 35733 ft 434 kts 116°
2026-02-17 08:52 5.76713 81.69261 36374 ft 465 kts 52°
2026-02-17 08:53 5.99115 81.81083 37482 ft 473 kts 16°
2026-02-17 08:53 6.19355 81.96595 38696 ft 477 kts 70°
2026-02-17 08:53 6.14409 82.21127 39849 ft 472 kts 137°
2026-02-17 08:53 5.90473 82.30642 40740 ft 471 kts 166°
2026-02-17 08:54 5.70634 82.46773 41193 ft 480 kts 111°
2026-02-17 08:54 5.69866 82.67705 41683 ft 482 kts 85°
2026-02-17 08:54 5.70069 82.70466 41606 ft 486 kts 88°
2026-02-17 08:55 5.69875 82.75518 41591 ft 489 kts 104°
2026-02-17 08:55 5.68733 82.78725 41710 ft 487 kts 116°
2026-02-17 08:56 5.67199 82.81758 41818 ft 487 kts 119°
2026-02-17 08:56 5.65601 82.84734 41909 ft 487 kts 119°
2026-02-17 08:57 5.63984 82.87721 42009 ft 487 kts 120°
2026-02-17 08:57 5.62264 82.90649 42109 ft 487 kts 123°
2026-02-17 08:58 5.60392 82.93485 42190 ft 487 kts 125°
2026-02-17 08:59 5.57521 82.97690 42316 ft 487 kts 125°
2026-02-17 08:59 5.55602 83.00490 42406 ft 487 kts 125°
2026-02-17 09:00 5.53683 83.03289 42493 ft 487 kts 125°
2026-02-17 09:00 5.51763 83.06089 42574 ft 487 kts 125°
2026-02-17 09:01 5.49853 83.08875 42656 ft 487 kts 125°
2026-02-17 09:01 5.47933 83.11676 42732 ft 487 kts 125°
2026-02-17 09:02 5.46013 83.14476 42809 ft 487 kts 125°
2026-02-17 09:02 5.44094 83.17275 42883 ft 487 kts 125°
2026-02-17 09:03 5.41216 83.21473 43002 ft 487 kts 125°
2026-02-17 09:03 5.39296 83.24273 43071 ft 487 kts 125°
2026-02-17 09:04 5.37378 83.27072 43137 ft 487 kts 125°
2026-02-17 09:04 5.35456 83.29875 43199 ft 487 kts 125°
2026-02-17 09:05 5.33547 83.32660 43276 ft 487 kts 125°
2026-02-17 09:05 5.31631 83.35456 43345 ft 487 kts 125°
2026-02-17 09:06 5.29711 83.38257 43412 ft 487 kts 125°
2026-02-17 09:07 5.26828 83.42463 43499 ft 487 kts 125°
2026-02-17 09:07 5.24919 83.45247 43556 ft 487 kts 125°
2026-02-17 09:08 5.22989 83.48063 43616 ft 487 kts 125°
2026-02-17 09:08 5.21082 83.50844 43685 ft 487 kts 125°
2026-02-17 09:09 5.19163 83.53645 43728 ft 487 kts 125°
2026-02-17 09:09 5.17244 83.56444 43786 ft 487 kts 125°
2026-02-17 09:10 5.15322 83.59248 43840 ft 487 kts 125°
2026-02-17 09:10 5.13417 83.62027 43886 ft 487 kts 125°
2026-02-17 09:11 5.10538 83.66227 43970 ft 487 kts 125°
2026-02-17 09:11 5.08618 83.69028 44034 ft 487 kts 125°
2026-02-17 09:12 5.06698 83.71829 44069 ft 487 kts 125°
2026-02-17 09:12 5.04793 83.74609 44122 ft 487 kts 125°
2026-02-17 09:13 5.02872 83.77411 44173 ft 486 kts 125°
2026-02-17 09:13 5.00955 83.80208 44217 ft 486 kts 125°
2026-02-17 09:14 4.99038 83.83006 44260 ft 486 kts 125°
2026-02-17 09:15 4.96165 83.87197 44342 ft 486 kts 125°
2026-02-17 09:15 4.94260 83.89976 44398 ft 486 kts 125°
2026-02-17 09:16 4.92344 83.92770 44453 ft 486 kts 125°
2026-02-17 09:16 4.90752 83.95093 44484 ft 485 kts 125°
2026-02-17 09:17 4.88837 83.97887 44521 ft 485 kts 125°
2026-02-17 09:17 4.86926 84.00676 44578 ft 485 kts 125°
2026-02-17 09:18 4.85017 84.03460 44629 ft 485 kts 125°
2026-02-17 09:18 4.83108 84.06246 44679 ft 484 kts 125°
2026-02-17 09:19 4.80260 84.10401 44756 ft 484 kts 125°
2026-02-17 09:19 4.78353 84.13183 44803 ft 483 kts 125°
2026-02-17 09:20 4.76449 84.15962 44845 ft 483 kts 125°
2026-02-17 09:20 4.74548 84.18736 44898 ft 483 kts 125°
2026-02-17 09:21 4.72645 84.21513 44915 ft 483 kts 125°
2026-02-17 09:21 4.70740 84.24292 44920 ft 483 kts 125°
2026-02-17 09:22 4.68847 84.27052 44917 ft 484 kts 125°
2026-02-17 09:23 4.65982 84.31229 44924 ft 485 kts 125°
2026-02-17 09:23 4.64072 84.34014 44968 ft 485 kts 125°
2026-02-17 09:24 4.62163 84.36798 45008 ft 484 kts 125°
2026-02-17 09:24 4.60252 84.39588 45040 ft 484 kts 125°
2026-02-17 09:25 4.58344 84.42373 45052 ft 485 kts 125°
2026-02-17 09:25 4.56446 84.45140 45051 ft 485 kts 125°
2026-02-17 09:26 4.54526 84.47925 45048 ft 486 kts 126°
2026-02-17 09:26 4.52594 84.50713 45058 ft 486 kts 126°
2026-02-17 09:27 4.49679 84.54879 45105 ft 486 kts 126°
2026-02-17 09:27 4.47729 84.57648 45137 ft 486 kts 126°
2026-02-17 09:28 4.45772 84.60414 45160 ft 486 kts 126°
2026-02-17 09:28 4.43825 84.63159 45171 ft 486 kts 126°
2026-02-17 09:29 4.41861 84.65920 45171 ft 487 kts 126°
2026-02-17 09:29 4.39892 84.68682 45174 ft 487 kts 126°
2026-02-17 09:30 4.36930 84.72831 45196 ft 488 kts 126°
2026-02-17 09:31 4.33968 84.76975 45247 ft 487 kts 126°
2026-02-17 09:31 4.31993 84.79736 45261 ft 487 kts 126°
2026-02-17 09:32 4.30031 84.82479 45268 ft 488 kts 126°
2026-02-17 09:32 4.28054 84.85244 45267 ft 488 kts 126°
2026-02-17 09:33 4.26075 84.88011 45272 ft 489 kts 126°
2026-02-17 09:33 4.24092 84.90786 45282 ft 489 kts 126°
2026-02-17 09:34 4.22110 84.93559 45301 ft 489 kts 126°
2026-02-17 09:35 4.19159 84.97694 45345 ft 488 kts 126°
2026-02-17 09:35 4.17184 85.00462 45361 ft 489 kts 126°
2026-02-17 09:36 4.15207 85.03236 45367 ft 489 kts 126°
2026-02-17 09:36 4.13233 85.06009 45369 ft 489 kts 126°
2026-02-17 09:37 4.11254 85.08791 45379 ft 489 kts 126°
2026-02-17 09:37 4.09280 85.11568 45381 ft 489 kts 126°
2026-02-17 09:38 4.07304 85.14345 45386 ft 489 kts 126°
2026-02-17 09:38 4.05323 85.17119 45389 ft 489 kts 126°
2026-02-17 09:39 4.02354 85.21252 45389 ft 489 kts 127°
2026-02-17 09:39 4.00352 85.24019 45387 ft 489 kts 127°
2026-02-17 09:40 3.98349 85.26770 45384 ft 489 kts 127°
2026-02-17 09:40 3.96331 85.29522 45381 ft 489 kts 127°
2026-02-17 09:41 3.94307 85.32262 45379 ft 489 kts 127°
2026-02-17 09:41 3.92283 85.34976 45380 ft 489 kts 128°
2026-02-17 09:42 3.90231 85.37699 45382 ft 489 kts 128°
2026-02-17 09:43 3.87126 85.41760 45384 ft 489 kts 128°
2026-02-17 09:43 3.85036 85.44456 45385 ft 489 kts 129°
2026-02-17 09:44 3.82935 85.47138 45384 ft 489 kts 129°
2026-02-17 09:44 3.80834 85.49795 45383 ft 489 kts 129°
2026-02-17 09:45 3.78709 85.52456 45382 ft 489 kts 129°
2026-02-17 09:45 3.76568 85.55111 45382 ft 489 kts 130°
2026-02-17 09:46 3.74417 85.57749 45385 ft 489 kts 130°
2026-02-17 09:46 3.72251 85.60378 45392 ft 489 kts 130°
2026-02-17 09:47 3.68977 85.64302 45400 ft 489 kts 131°
2026-02-17 09:47 3.66795 85.66891 45403 ft 489 kts 131°
2026-02-17 09:48 3.64592 85.69488 45403 ft 489 kts 131°
2026-02-17 09:48 3.62385 85.72076 45401 ft 489 kts 131°
2026-02-17 09:49 3.60169 85.74662 45399 ft 489 kts 131°
2026-02-17 09:49 3.57948 85.77245 45396 ft 489 kts 131°
2026-02-17 09:50 3.55725 85.79824 45393 ft 489 kts 131°
2026-02-17 09:51 3.52381 85.83688 45387 ft 489 kts 132°
2026-02-17 09:51 3.50146 85.86258 45384 ft 489 kts 132°
2026-02-17 09:52 3.47906 85.88823 45383 ft 489 kts 132°
2026-02-17 09:52 3.45660 85.91382 45385 ft 489 kts 132°
2026-02-17 09:53 3.43420 85.93918 45388 ft 489 kts 132°
2026-02-17 09:53 3.41155 85.96466 45394 ft 489 kts 133°
2026-02-17 09:54 3.38886 85.99003 45398 ft 489 kts 133°
2026-02-17 09:54 3.36610 86.01536 45403 ft 489 kts 133°
2026-02-17 09:55 3.33186 86.05326 45407 ft 489 kts 133°
2026-02-17 09:55 3.30900 86.07846 45406 ft 489 kts 133°
2026-02-17 09:56 3.28606 86.10369 45403 ft 489 kts 133°
2026-02-17 09:56 3.26312 86.12886 45399 ft 489 kts 133°
2026-02-17 09:57 3.24033 86.15383 45394 ft 489 kts 133°
2026-02-17 09:57 3.21734 86.17898 45390 ft 489 kts 133°
2026-02-17 09:58 3.19430 86.20413 45387 ft 489 kts 133°
2026-02-17 09:59 3.15973 86.24169 45389 ft 489 kts 133°
2026-02-17 09:59 3.13660 86.26670 45393 ft 489 kts 134°
2026-02-17 10:00 3.11358 86.29147 45396 ft 489 kts 134°
2026-02-17 10:00 3.09036 86.31635 45396 ft 489 kts 134°
2026-02-17 10:01 3.06706 86.34124 45393 ft 489 kts 134°
2026-02-17 10:01 3.04375 86.36604 45389 ft 489 kts 134°
2026-02-17 10:02 3.02039 86.39082 45385 ft 489 kts 134°
2026-02-17 10:02 2.99696 86.41556 45383 ft 489 kts 134°
2026-02-17 10:03 2.96184 86.45245 45381 ft 489 kts 134°
2026-02-17 10:03 2.93828 86.47700 45382 ft 489 kts 135°
2026-02-17 10:04 2.91861 86.49736 45383 ft 489 kts 135°
2026-02-17 10:04 2.89489 86.52174 45384 ft 489 kts 135°
2026-02-17 10:05 2.87107 86.54603 45385 ft 489 kts 135°
2026-02-17 10:05 2.84717 86.57024 45387 ft 489 kts 135°
2026-02-17 10:06 2.82318 86.59440 45389 ft 489 kts 136°
2026-02-17 10:07 2.78708 86.63047 45390 ft 489 kts 136°
2026-02-17 10:07 2.76292 86.65444 45389 ft 489 kts 136°
2026-02-17 10:08 2.73868 86.67833 45388 ft 489 kts 136°
2026-02-17 10:08 2.71451 86.70201 45386 ft 489 kts 136°
2026-02-17 10:09 2.69015 86.72577 45384 ft 489 kts 136°
2026-02-17 10:09 2.66570 86.74953 45382 ft 489 kts 137°
2026-02-17 10:10 2.64124 86.77317 45382 ft 489 kts 137°
2026-02-17 10:10 2.61671 86.79675 45383 ft 489 kts 137°
2026-02-17 10:11 2.57979 86.83197 45387 ft 489 kts 137°
2026-02-17 10:11 2.55510 86.85538 45390 ft 489 kts 137°
2026-02-17 10:12 2.53034 86.87874 45393 ft 489 kts 137°
2026-02-17 10:12 2.50551 86.90205 45395 ft 489 kts 137°
2026-02-17 10:13 2.48077 86.92519 45394 ft 489 kts 138°
2026-02-17 10:13 2.45586 86.94841 45392 ft 489 kts 138°
2026-02-17 10:14 2.43093 86.97158 45389 ft 489 kts 138°
2026-02-17 10:15 2.39343 87.00628 45385 ft 489 kts 138°
2026-02-17 10:15 2.36840 87.02933 45384 ft 489 kts 138°
2026-02-17 10:16 2.34350 87.05220 45383 ft 489 kts 138°
2026-02-17 10:16 2.31840 87.07518 45383 ft 489 kts 138°
2026-02-17 10:17 2.29327 87.09811 45383 ft 489 kts 139°
2026-02-17 10:17 2.26811 87.12101 45385 ft 489 kts 139°
2026-02-17 10:18 2.24287 87.14390 45389 ft 489 kts 139°
2026-02-17 10:18 2.21761 87.16675 45393 ft 489 kts 139°
2026-02-17 10:19 2.17985 87.20076 45398 ft 489 kts 139°
2026-02-17 10:19 2.15453 87.22349 45401 ft 489 kts 139°
2026-02-17 10:20 2.12920 87.24618 45402 ft 489 kts 139°
2026-02-17 10:20 2.10385 87.26887 45400 ft 489 kts 139°
2026-02-17 10:21 2.07844 87.29159 45396 ft 489 kts 139°
2026-02-17 10:21 2.05307 87.31425 45391 ft 489 kts 139°
2026-02-17 10:22 2.02769 87.33689 45386 ft 489 kts 139°
2026-02-17 10:23 1.98972 87.37071 45382 ft 489 kts 139°
2026-02-17 10:23 1.96428 87.39330 45382 ft 489 kts 139°
2026-02-17 10:24 1.93882 87.41586 45384 ft 489 kts 139°
2026-02-17 10:24 1.91330 87.43838 45389 ft 489 kts 139°
2026-02-17 10:25 1.88776 87.46085 45395 ft 489 kts 140°
2026-02-17 10:25 1.86216 87.48331 45400 ft 489 kts 140°
2026-02-17 10:26 1.83670 87.50558 45403 ft 489 kts 140°
2026-02-17 10:26 1.81105 87.52798 45403 ft 489 kts 140°
2026-02-17 10:27 1.77259 87.56148 45399 ft 489 kts 140°
2026-02-17 10:27 1.74691 87.58382 45396 ft 489 kts 140°
2026-02-17 10:28 1.72121 87.60613 45395 ft 489 kts 140°
2026-02-17 10:28 1.69550 87.62843 45394 ft 489 kts 140°
2026-02-17 10:29 1.66995 87.65057 45394 ft 489 kts 140°
2026-02-17 10:29 1.64420 87.67285 45392 ft 489 kts 140°
2026-02-17 10:30 1.61844 87.69513 45389 ft 489 kts 140°
2026-02-17 10:31 1.57981 87.72847 45384 ft 489 kts 140°
2026-02-17 10:31 1.55403 87.75067 45382 ft 489 kts 140°
2026-02-17 10:32 1.52838 87.77273 45381 ft 489 kts 140°
2026-02-17 10:32 1.50255 87.79486 45382 ft 489 kts 140°
2026-02-17 10:33 1.47665 87.81694 45383 ft 489 kts 140°
2026-02-17 10:33 1.45066 87.83901 45385 ft 489 kts 140°
2026-02-17 10:34 1.42468 87.86100 45386 ft 489 kts 141°
2026-02-17 10:34 1.39871 87.88293 45386 ft 489 kts 141°
2026-02-17 10:35 1.35987 87.91567 45387 ft 489 kts 141°
2026-02-17 10:35 1.33383 87.93758 45388 ft 489 kts 141°
2026-02-17 10:36 1.30779 87.95948 45389 ft 489 kts 141°
2026-02-17 10:36 1.28173 87.98135 45388 ft 489 kts 141°
2026-02-17 10:37 1.25567 88.00319 45387 ft 489 kts 141°
2026-02-17 10:37 1.22955 88.02504 45386 ft 489 kts 141°
2026-02-17 10:38 1.20363 88.04671 45386 ft 489 kts 141°
2026-02-17 10:39 1.16446 88.07944 45385 ft 489 kts 141°
2026-02-17 10:39 1.13833 88.10128 45384 ft 489 kts 141°
2026-02-17 10:40 1.11227 88.12309 45384 ft 489 kts 141°
2026-02-17 10:40 1.08634 88.14482 45385 ft 489 kts 141°
2026-02-17 10:41 1.06028 88.16668 45384 ft 489 kts 141°
2026-02-17 10:41 1.03424 88.18857 45383 ft 489 kts 141°
2026-02-17 10:42 1.00823 88.21048 45383 ft 489 kts 141°
2026-02-17 10:42 0.98223 88.23243 45383 ft 489 kts 141°
2026-02-17 10:43 0.94343 88.26525 45387 ft 489 kts 140°
2026-02-17 10:43 0.91746 88.28726 45393 ft 489 kts 140°
2026-02-17 10:44 0.89153 88.30926 45400 ft 489 kts 140°
2026-02-17 10:44 0.86560 88.33127 45405 ft 489 kts 140°
2026-02-17 10:45 0.83969 88.35326 45407 ft 489 kts 140°
2026-02-17 10:45 0.81376 88.37528 45408 ft 489 kts 140°
2026-02-17 10:46 0.78781 88.39732 45406 ft 489 kts 140°
2026-02-17 10:47 0.74911 88.43018 45401 ft 489 kts 140°
2026-02-17 10:47 0.72317 88.45220 45398 ft 489 kts 140°
2026-02-17 10:48 0.69725 88.47420 45396 ft 489 kts 140°
2026-02-17 10:48 0.67131 88.49621 45396 ft 489 kts 140°
2026-02-17 10:49 0.64537 88.51821 45396 ft 489 kts 140°
2026-02-17 10:49 0.61945 88.54020 45395 ft 489 kts 140°
2026-02-17 10:50 0.59350 88.56220 45392 ft 489 kts 140°
2026-02-17 10:50 0.56754 88.58421 45391 ft 489 kts 140°
2026-02-17 10:51 0.52871 88.61707 45388 ft 489 kts 141°
2026-02-17 10:51 0.50272 88.63901 45385 ft 489 kts 141°
2026-02-17 10:52 0.48091 88.65740 45386 ft 489 kts 141°
2026-02-17 10:52 0.45507 88.67918 45389 ft 489 kts 141°
2026-02-17 10:53 0.42907 88.70108 45392 ft 489 kts 141°
2026-02-17 10:53 0.40303 88.72299 45395 ft 489 kts 141°
2026-02-17 10:54 0.37699 88.74489 45396 ft 489 kts 141°
2026-02-17 10:55 0.33791 88.77771 45396 ft 489 kts 141°
2026-02-17 10:55 0.31186 88.79957 45394 ft 489 kts 141°
2026-02-17 10:56 0.28579 88.82143 45393 ft 489 kts 141°
2026-02-17 10:56 0.25988 88.84314 45391 ft 489 kts 141°
2026-02-17 10:57 0.23379 88.86498 45387 ft 489 kts 141°
2026-02-17 10:57 0.20769 88.88680 45386 ft 489 kts 141°
2026-02-17 10:58 0.18156 88.90863 45388 ft 489 kts 141°
2026-02-17 10:58 0.15547 88.93043 45390 ft 489 kts 141°
2026-02-17 10:59 0.11628 88.96314 45394 ft 489 kts 141°
2026-02-17 10:59 0.09032 88.98478 45397 ft 489 kts 141°
2026-02-17 11:00 0.06415 89.00658 45399 ft 489 kts 141°
2026-02-17 11:00 0.03802 89.02834 45400 ft 489 kts 141°
2026-02-17 11:01 0.01186 89.05010 45397 ft 489 kts 141°
2026-02-17 11:01 -0.01429 89.07184 45394 ft 489 kts 141°
2026-02-17 11:02 -0.04045 89.09358 45390 ft 489 kts 141°
2026-02-17 11:03 -0.07955 89.12606 45385 ft 489 kts 141°
2026-02-17 11:03 -0.10573 89.14780 45384 ft 489 kts 141°
2026-02-17 11:04 -0.13190 89.16953 45384 ft 489 kts 141°
2026-02-17 11:04 -0.15805 89.19128 45384 ft 489 kts 141°
2026-02-17 11:05 -0.18416 89.21304 45382 ft 489 kts 141°
2026-02-17 11:05 -0.21031 89.23485 45381 ft 489 kts 141°
2026-02-17 11:06 -0.23646 89.25665 45384 ft 489 kts 141°
2026-02-17 11:06 -0.26259 89.27841 45388 ft 489 kts 141°
2026-02-17 11:07 -0.30164 89.31087 45393 ft 489 kts 141°
2026-02-17 11:07 -0.32784 89.33262 45393 ft 489 kts 141°
2026-02-17 11:08 -0.35401 89.35432 45392 ft 489 kts 141°
2026-02-17 11:08 -0.38023 89.37603 45392 ft 489 kts 141°
2026-02-17 11:09 -0.40643 89.39771 45389 ft 489 kts 141°
2026-02-17 11:09 -0.43267 89.41938 45386 ft 489 kts 141°
2026-02-17 11:10 -0.45873 89.44089 45385 ft 489 kts 141°
2026-02-17 11:11 -0.49809 89.47338 45385 ft 489 kts 141°
2026-02-17 11:11 -0.52432 89.49505 45386 ft 489 kts 141°
2026-02-17 11:12 -0.55052 89.51674 45388 ft 489 kts 141°
2026-02-17 11:12 -0.57668 89.53845 45391 ft 489 kts 141°
2026-02-17 11:13 -0.60286 89.56019 45393 ft 489 kts 141°
2026-02-17 11:13 -0.62904 89.58194 45394 ft 489 kts 141°
2026-02-17 11:14 -0.65506 89.60356 45393 ft 489 kts 141°
2026-02-17 11:14 -0.68121 89.62530 45392 ft 489 kts 141°
2026-02-17 11:15 -0.72048 89.65794 45390 ft 489 kts 141°
2026-02-17 11:15 -0.74665 89.67966 45390 ft 489 kts 141°
2026-02-17 11:16 -0.77283 89.70136 45389 ft 489 kts 141°
2026-02-17 11:16 -0.79886 89.72290 45388 ft 489 kts 141°
2026-02-17 11:17 -0.82509 89.74458 45388 ft 489 kts 141°
2026-02-17 11:17 -0.85131 89.76623 45390 ft 489 kts 141°
2026-02-17 11:18 -0.87753 89.78787 45393 ft 489 kts 141°
2026-02-17 11:19 -0.91696 89.82036 45396 ft 489 kts 141°
2026-02-17 11:19 -0.94321 89.84197 45395 ft 489 kts 141°
2026-02-17 11:20 -0.96930 89.86343 45393 ft 489 kts 141°
2026-02-17 11:20 -0.99559 89.88503 45390 ft 489 kts 141°
2026-02-17 11:21 -1.02189 89.90663 45388 ft 489 kts 141°
2026-02-17 11:21 -1.04820 89.92820 45387 ft 489 kts 141°
2026-02-17 11:22 -1.07450 89.94975 45387 ft 489 kts 141°
2026-02-17 11:22 -1.10081 89.97132 45390 ft 489 kts 141°
2026-02-17 11:23 -1.14016 90.00359 45397 ft 489 kts 141°
2026-02-17 11:23 -1.16646 90.02517 45400 ft 489 kts 141°
2026-02-17 11:24 -1.19278 90.04677 45402 ft 489 kts 141°
2026-02-17 11:24 -1.21905 90.06833 45403 ft 489 kts 141°
2026-02-17 11:25 -1.24518 90.08977 45402 ft 489 kts 141°
2026-02-17 11:25 -1.27146 90.11135 45398 ft 489 kts 141°
2026-02-17 11:26 -1.29781 90.13296 45393 ft 489 kts 141°
2026-02-17 11:27 -1.33725 90.16532 45385 ft 489 kts 141°
2026-02-17 11:27 -1.36356 90.18691 45383 ft 489 kts 141°
2026-02-17 11:28 -1.38985 90.20852 45385 ft 489 kts 141°
2026-02-17 11:28 -1.41591 90.22999 45388 ft 489 kts 141°
2026-02-17 11:29 -1.44214 90.25164 45393 ft 489 kts 141°
2026-02-17 11:29 -1.46836 90.27334 45398 ft 489 kts 141°
2026-02-17 11:30 -1.49456 90.29504 45402 ft 489 kts 141°
2026-02-17 11:30 -1.52076 90.31678 45402 ft 489 kts 141°
2026-02-17 11:31 -1.55989 90.34928 45394 ft 489 kts 141°
2026-02-17 11:31 -1.58605 90.37102 45387 ft 489 kts 141°
2026-02-17 11:32 -1.61225 90.39280 45381 ft 489 kts 141°
2026-02-17 11:32 -1.63841 90.41456 45378 ft 489 kts 141°
2026-02-17 11:33 -1.66461 90.43631 45378 ft 489 kts 141°
2026-02-17 11:33 -1.69084 90.45800 45382 ft 489 kts 141°
2026-02-17 11:34 -1.71694 90.47946 45385 ft 489 kts 141°
2026-02-17 11:35 -1.75645 90.51181 45388 ft 489 kts 141°
2026-02-17 11:35 -1.78280 90.53334 45388 ft 489 kts 141°
2026-02-17 11:36 -1.80913 90.55484 45388 ft 489 kts 141°
2026-02-17 11:36 -1.83548 90.57634 45388 ft 489 kts 141°
2026-02-17 11:37 -1.86187 90.59786 45390 ft 489 kts 142°
2026-02-17 11:37 -1.88824 90.61934 45394 ft 489 kts 142°
2026-02-17 11:38 -1.91444 90.64065 45398 ft 489 kts 142°
2026-02-17 11:38 -1.94085 90.66212 45399 ft 489 kts 142°
2026-02-17 11:39 -1.98048 90.69430 45395 ft 489 kts 142°
2026-02-17 11:39 -2.00691 90.71573 45389 ft 489 kts 142°
2026-02-17 11:40 -2.02888 90.73354 45384 ft 489 kts 142°
2026-02-17 11:40 -2.05965 90.75848 45379 ft 489 kts 142°
2026-02-17 11:41 -2.08178 90.77641 45377 ft 489 kts 142°
2026-02-17 11:41 -2.10824 90.79779 45379 ft 489 kts 142°
2026-02-17 11:42 -2.13474 90.81910 45385 ft 489 kts 142°
2026-02-17 11:43 -2.17444 90.85086 45395 ft 489 kts 142°
2026-02-17 11:43 -2.20110 90.87210 45401 ft 489 kts 142°
2026-02-17 11:44 -2.22776 90.89328 45406 ft 489 kts 142°
2026-02-17 11:44 -2.25444 90.91443 45409 ft 489 kts 142°
2026-02-17 11:45 -2.28114 90.93555 45406 ft 489 kts 142°
2026-02-17 11:45 -2.30785 90.95665 45401 ft 489 kts 142°
2026-02-17 11:46 -2.33454 90.97770 45396 ft 489 kts 142°
2026-02-17 11:46 -2.36110 90.99864 45391 ft 489 kts 142°
2026-02-17 11:47 -2.40117 91.03019 45386 ft 489 kts 142°
2026-02-17 11:47 -2.42793 91.05124 45386 ft 489 kts 142°
2026-02-17 11:48 -2.45464 91.07230 45388 ft 489 kts 142°
2026-02-17 11:48 -2.48136 91.09339 45391 ft 489 kts 142°
2026-02-17 11:49 -2.50789 91.11437 45394 ft 489 kts 142°
2026-02-17 11:49 -2.53460 91.13549 45398 ft 489 kts 142°
2026-02-17 11:50 -2.56131 91.15661 45402 ft 489 kts 142°
2026-02-17 11:51 -2.60134 91.18830 45402 ft 489 kts 142°
2026-02-17 11:51 -2.62787 91.20930 45398 ft 489 kts 142°
2026-02-17 11:52 -2.65457 91.23044 45394 ft 489 kts 142°
2026-02-17 11:52 -2.68127 91.25158 45391 ft 489 kts 142°
2026-02-17 11:53 -2.70794 91.27268 45390 ft 489 kts 142°
2026-02-17 11:53 -2.73463 91.29379 45392 ft 489 kts 142°
2026-02-17 11:54 -2.76137 91.31491 45394 ft 489 kts 142°
2026-02-17 11:54 -2.78791 91.33584 45396 ft 489 kts 142°
2026-02-17 11:55 -2.82802 91.36743 45398 ft 489 kts 142°
2026-02-17 11:55 -2.85477 91.38849 45400 ft 489 kts 142°
2026-02-17 11:56 -2.88153 91.40952 45401 ft 489 kts 143°
2026-02-17 11:56 -2.90832 91.43057 45401 ft 489 kts 143°
2026-02-17 11:57 -2.93506 91.45157 45400 ft 489 kts 143°
2026-02-17 11:57 -2.96182 91.47258 45397 ft 489 kts 143°
2026-02-17 11:58 -2.98861 91.49360 45394 ft 489 kts 143°
2026-02-17 11:59 -3.02876 91.52509 45394 ft 489 kts 143°
2026-02-17 11:59 -3.05535 91.54594 45394 ft 489 kts 143°
2026-02-17 12:00 -3.08213 91.56693 45395 ft 489 kts 143°
2026-02-17 12:00 -3.10890 91.58791 45394 ft 489 kts 143°
2026-02-17 12:01 -3.13570 91.60892 45393 ft 489 kts 143°
2026-02-17 12:01 -3.16251 91.62993 45392 ft 489 kts 143°
2026-02-17 12:02 -3.18932 91.65093 45391 ft 489 kts 143°
2026-02-17 12:02 -3.21599 91.67180 45391 ft 489 kts 143°
2026-02-17 12:03 -3.25618 91.70322 45391 ft 489 kts 143°
2026-02-17 12:03 -3.28303 91.72416 45394 ft 489 kts 143°
2026-02-17 12:04 -3.30989 91.74507 45395 ft 489 kts 143°
2026-02-17 12:04 -3.33679 91.76599 45393 ft 489 kts 143°
2026-02-17 12:05 -3.36366 91.78686 45390 ft 489 kts 143°
2026-02-17 12:05 -3.39038 91.80760 45388 ft 489 kts 143°
2026-02-17 12:06 -3.41732 91.82850 45388 ft 489 kts 143°
2026-02-17 12:07 -3.45768 91.85986 45392 ft 489 kts 143°
2026-02-17 12:07 -3.48455 91.88076 45394 ft 489 kts 143°
2026-02-17 12:08 -3.51121 91.90152 45395 ft 489 kts 143°
2026-02-17 12:08 -3.53807 91.92242 45395 ft 489 kts 143°
2026-02-17 12:09 -3.56493 91.94335 45394 ft 489 kts 143°
2026-02-17 12:09 -3.59181 91.96429 45392 ft 489 kts 143°
2026-02-17 12:10 -3.61866 91.98521 45390 ft 489 kts 143°
2026-02-17 12:10 -3.64552 92.00614 45390 ft 489 kts 143°
2026-02-17 12:11 -3.68563 92.03738 45384 ft 489 kts 143°
2026-02-17 12:11 -3.71246 92.05831 45382 ft 489 kts 143°
2026-02-17 12:12 -3.73929 92.07928 45381 ft 489 kts 143°
2026-02-17 12:12 -3.76613 92.10027 45383 ft 489 kts 143°
2026-02-17 12:13 -3.79293 92.12126 45385 ft 489 kts 143°
2026-02-17 12:13 -3.81969 92.14226 45388 ft 489 kts 143°
2026-02-17 12:14 -3.84645 92.16334 45390 ft 489 kts 142°
2026-02-17 12:15 -3.88651 92.19500 45391 ft 489 kts 142°
2026-02-17 12:15 -3.91319 92.21613 45390 ft 489 kts 142°
2026-02-17 12:16 -3.93987 92.23726 45390 ft 489 kts 142°
2026-02-17 12:16 -3.96639 92.25825 45390 ft 489 kts 142°
2026-02-17 12:17 -3.99311 92.27937 45390 ft 489 kts 142°
2026-02-17 12:17 -4.01988 92.30050 45390 ft 489 kts 142°
2026-02-17 12:18 -4.04667 92.32162 45390 ft 489 kts 142°
2026-02-17 12:18 -4.07328 92.34257 45391 ft 489 kts 143°
2026-02-17 12:19 -4.11342 92.37410 45391 ft 489 kts 143°
2026-02-17 12:19 -4.14022 92.39510 45390 ft 489 kts 143°
2026-02-17 12:20 -4.16707 92.41608 45389 ft 489 kts 143°
2026-02-17 12:20 -4.19390 92.43700 45389 ft 489 kts 143°
2026-02-17 12:21 -4.22076 92.45791 45389 ft 489 kts 143°
2026-02-17 12:21 -4.24747 92.47867 45389 ft 489 kts 143°
2026-02-17 12:22 -4.27437 92.49955 45389 ft 489 kts 143°
2026-02-17 12:23 -4.31477 92.53087 45390 ft 489 kts 143°
2026-02-17 12:23 -4.34170 92.55174 45389 ft 489 kts 143°
2026-02-17 12:24 -4.36862 92.57258 45389 ft 489 kts 143°
2026-02-17 12:24 -4.39556 92.59342 45389 ft 489 kts 143°
2026-02-17 12:25 -4.42230 92.61410 45390 ft 489 kts 143°
2026-02-17 12:25 -4.44923 92.63492 45391 ft 489 kts 143°
2026-02-17 12:26 -4.47620 92.65574 45391 ft 489 kts 143°
2026-02-17 12:26 -4.50315 92.67652 45390 ft 489 kts 143°
2026-02-17 12:27 -4.53905 92.70414 45388 ft 489 kts 143°
2026-02-17 12:27 -4.56604 92.72490 45387 ft 489 kts 143°
2026-02-17 12:28 -4.59303 92.74568 45387 ft 489 kts 143°
2026-02-17 12:28 -4.61997 92.76647 45386 ft 489 kts 143°
2026-02-17 12:29 -4.64690 92.78734 45387 ft 489 kts 143°
2026-02-17 12:29 -4.67375 92.80827 45387 ft 489 kts 143°
2026-02-17 12:30 -4.70039 92.82914 45388 ft 489 kts 143°
2026-02-17 12:31 -4.74050 92.86083 45387 ft 489 kts 142°
2026-02-17 12:31 -4.76712 92.88204 45387 ft 489 kts 142°
2026-02-17 12:32 -4.79367 92.90335 45386 ft 489 kts 142°
2026-02-17 12:32 -4.82014 92.92475 45385 ft 489 kts 142°
2026-02-17 12:33 -4.84659 92.94631 45383 ft 489 kts 141°